Zurück zum Katalog

CZ-4B DEB

AktivSSO
NORAD 27433·DEBRIS·🇨🇳 China

Gestartet May 15, 2002 von Taiyuan Satellite Launch Center

Loading…

Nächste Überflüge (nächste 24 Stunden)

TLE

AktuellSource: Space-Track

Epoche: Sep 14, 2026, 14:51 UTC

1 27433U 02024D   26257.61909244  .00000225  00000-0  13996-3 0  9994
2 27433  98.9126 306.2887 0013303 245.0089 114.9702 14.14751525253973

Verfolge CZ-4B DEB in Echtzeit mit AllMySat

Download on the App Store